TimeMDT,TemperatureF,Dew PointF,Humidity,Sea Level PressureIn,VisibilityMPH,Wind Direction,Wind SpeedMPH,Gust SpeedMPH,PrecipitationIn,Events,Conditions,WindDirDegrees,DateUTC
12:53 AM,66.0,46.9,50,30.01,10.0,Calm,Calm,-,N/A,,Clear,0,2013-08-19 06:53:00
1:53 AM,66.0,48.0,52,30.00,10.0,ESE,8.1,-,N/A,,Clear,120,2013-08-19 07:53:00
2:53 AM,63.0,46.9,56,30.02,10.0,Calm,Calm,-,N/A,,Clear,0,2013-08-19 08:53:00
3:53 AM,60.1,48.0,64,30.02,10.0,South,8.1,-,N/A,,Clear,170,2013-08-19 09:53:00
4:53 AM,60.1,48.0,64,30.02,10.0,South,4.6,-,N/A,,Clear,190,2013-08-19 10:53:00
5:53 AM,57.0,46.9,69,30.04,10.0,SSE,8.1,-,N/A,,Clear,160,2013-08-19 11:53:00
6:53 AM,57.0,46.9,69,30.06,10.0,SE,4.6,-,N/A,,Clear,140,2013-08-19 12:53:00
7:53 AM,64.0,46.9,54,30.06,10.0,SE,6.9,-,N/A,,Clear,140,2013-08-19 13:53:00
8:53 AM,69.1,46.9,45,30.05,10.0,Calm,Calm,-,N/A,,Clear,0,2013-08-19 14:53:00
9:53 AM,73.9,48.9,41,30.04,10.0,Calm,Calm,-,N/A,,Clear,0,2013-08-19 15:53:00
10:53 AM,79.0,51.1,38,30.01,10.0,North,5.8,-,N/A,,Clear,350,2013-08-19 16:53:00
11:53 AM,82.0,50.0,33,29.99,10.0,NNW,4.6,-,N/A,,Clear,340,2013-08-19 17:53:00
12:53 PM,86.0,46.9,26,29.97,10.0,NNW,4.6,-,N/A,,Clear,330,2013-08-19 18:53:00
1:53 PM,88.0,43.0,21,29.93,10.0,West,5.8,-,N/A,,Clear,280,2013-08-19 19:53:00
2:53 PM,90.0,44.1,20,29.89,10.0,NW,10.4,-,N/A,,Clear,310,2013-08-19 20:53:00
3:53 PM,91.0,43.0,19,29.87,10.0,WNW,13.8,-,N/A,,Clear,290,2013-08-19 21:53:00
4:53 PM,89.1,42.1,19,29.86,10.0,NW,11.5,-,N/A,,Clear,310,2013-08-19 22:53:00
5:53 PM,90.0,39.0,17,29.86,10.0,West,9.2,-,N/A,,Clear,280,2013-08-19 23:53:00
6:53 PM,84.9,45.0,25,29.89,10.0,SSE,11.5,-,N/A,,Clear,160,2013-08-20 00:53:00
7:53 PM,79.0,46.0,31,29.93,10.0,SSE,25.3,33.4,N/A,,Clear,150,2013-08-20 01:53:00
8:38 PM,77.0,46.4,34,30.18,10.0,South,18.4,27.6,N/A,Thunderstorm,Clear,170,2013-08-20 02:38:00
8:53 PM,77.0,46.0,33,29.94,10.0,SSE,20.7,-,N/A,Thunderstorm,Clear,160,2013-08-20 02:53:00
9:08 PM,75.2,46.4,36,30.19,10.0,SSE,20.7,27.6,N/A,,Clear,160,2013-08-20 03:08:00
9:53 PM,75.0,46.0,36,29.93,10.0,South,16.1,-,N/A,,Clear,170,2013-08-20 03:53:00
10:53 PM,73.9,45.0,35,29.94,10.0,East,5.8,-,N/A,,Partly Cloudy,80,2013-08-20 04:53:00
11:53 PM,73.0,46.9,39,29.93,10.0,East,13.8,-,N/A,,Clear,100,2013-08-20 05:53:00